EW6754 Weather Reports


Display with metric or nautical units.
time (UTC)temp
F
wind
direction
speed
MPH
gust
MPH
rain 1hr
in
rain 24hr
in
rain mn
in
humidity
%
barometer
mb
20260510053027 76 101 0.0 0.0 0.00 0.07 0.00 79 1015.0
20260510051524 76 186 0.0 0.0 0.00 0.07 0.00 80 1014.9
20260510050026 76 153 0.0 0.0 0.00 0.07 0.00 80 1014.9
20260510044518 76 155 0.0 0.0 0.00 0.07 0.00 80 1015.0
20260510043013 76 231 0.0 0.0 0.00 0.07 0.00 79 1015.2
20260510041508 76 204 0.0 0.0 0.00 0.07 0.00 79 1015.1
20260510040004 76 214 0.0 0.0 0.00 0.07 0.07 79 1015.3
20260510034504 76 222 0.0 0.0 0.00 0.07 0.07 79 1015.5
20260510033003 76 226 0.0 0.0 0.00 0.07 0.07 79 1015.6
20260510031503 77 160 0.0 0.0 0.00 0.07 0.07 81 1015.7
20260510030003 77 226 0.0 0.0 0.00 0.07 0.07 81 1015.7
20260510024502 78 110 0.0 0.0 0.00 0.07 0.07 81 1015.7
20260510023001 78 103 0.0 0.0 0.00 0.07 0.07 81 1015.7
20260510021504 78 113 0.0 0.0 0.00 0.07 0.07 81 1015.5
20260510020003 78 174 0.0 0.0 0.00 0.07 0.07 81 1015.5
20260510014608 78 111 0.0 0.0 0.00 0.07 0.07 81 1015.5
20260510013058 79 112 0.0 0.0 0.00 0.07 0.07 81 1015.6
20260510011601 79 120 0.0 0.0 0.00 0.07 0.07 80 1015.5
20260510010104 79 147 0.0 0.0 0.00 0.07 0.07 80 1015.4
20260510004559 80 117 0.0 0.0 0.00 0.07 0.07 77 1015.2
20260510003104 79 101 0.0 0.0 0.00 0.07 0.07 78 1015.1
20260510001556 79 98 0.0 0.0 0.00 0.07 0.07 80 1014.9
20260510000057 79 100 0.0 0.0 0.00 0.07 0.07 80 1014.7
20260509234607 79 77 0.0 0.0 0.00 0.07 0.07 79 1014.6
20260509233053 80 122 0.0 0.0 0.00 0.07 0.07 80 1014.4
20260509231552 79 100 0.0 0.0 0.00 0.07 0.07 79 1014.3
20260509230054 79 121 0.0 0.0 0.00 0.07 0.07 80 1014.1
20260509224550 80 124 0.0 0.0 0.07 0.07 0.07 80 1014.0
20260509223056 79 79 0.0 0.0 0.07 0.07 0.07 80 1013.9
20260509221546 80 89 0.0 0.0 0.07 0.07 0.07 81 1013.7
20260509220053 82 124 0.0 0.0 0.07 0.07 0.07 76 1013.6
20260509214540 85 179 0.0 0.0 0.00 0.00 0.00 65 1013.3
20260509213030 85 100 0.0 8.0 0.00 0.00 0.00 66 1013.3
20260509211529 85 116 0.0 0.0 0.00 0.00 0.00 62 1013.2
20260509210028 86 87 0.0 5.0 0.00 0.00 0.00 62 1013.2
20260509204534 87 128 0.0 0.0 0.00 0.00 0.00 59 1013.1
20260509203025 87 148 0.0 6.0 0.00 0.00 0.00 61 1013.2
20260509201524 87 118 1.0 9.0 0.00 0.00 0.00 59 1013.1
20260509200027 88 89 2.0 9.0 0.00 0.00 0.00 58 1013.2
20260509194531 88 58 3.0 16.0 0.00 0.00 0.00 56 1013.3
20260509193033 88 107 0.0 0.0 0.00 0.00 0.00 52 1013.3
20260509191521 89 96 0.0 8.0 0.00 0.00 0.00 52 1013.3
20260509190024 89 110 1.0 14.0 0.00 0.00 0.00 54 1013.4
20260509184520 89 109 3.0 12.0 0.00 0.00 0.00 53 1013.4
20260509183016 89 162 0.0 12.0 0.00 0.00 0.00 52 1013.6
20260509181515 89 128 0.0 16.0 0.00 0.00 0.00 53 1013.7
20260509180014 89 101 1.0 11.0 0.00 0.00 0.00 52 1013.9
20260509174514 90 89 0.0 11.0 0.00 0.00 0.00 52 1014.2
20260509173012 89 162 0.0 3.0 0.00 0.00 0.00 51 1014.3
20260509171514 89 129 0.0 12.0 0.00 0.00 0.00 52 1014.7
20260509170010 89 155 0.0 1.0 0.00 0.00 0.00 52 1014.8
20260509164509 89 113 0.0 9.0 0.00 0.00 0.00 51 1014.8
20260509163016 89 169 0.0 12.0 0.00 0.00 0.00 51 1014.9
20260509161507 89 95 0.0 8.0 0.00 0.00 0.00 50 1015.0
20260509160004 88 63 0.0 11.0 0.00 0.00 0.00 50 1015.1
20260509154503 88 94 0.0 12.0 0.00 0.00 0.00 51 1015.3
20260509153003 88 164 0.0 12.0 0.00 0.00 0.00 53 1015.5
20260509151601 88 103 0.0 4.0 0.00 0.00 0.00 55 1015.5
20260509150058 87 100 0.0 0.0 0.00 0.00 0.00 57 1015.7
20260509144610 86 98 0.0 9.0 0.00 0.00 0.00 56 1015.7
20260509143055 85 79 0.0 0.0 0.00 0.00 0.00 62 1015.8
20260509141552 86 172 0.0 6.0 0.00 0.00 0.00 62 1015.8
20260509134551 85 141 0.0 0.0 0.00 0.00 0.00 65 1015.7
20260509133046 85 115 0.0 0.0 0.00 0.00 0.00 64 1015.7
20260509131553 84 86 0.0 6.0 0.00 0.00 0.00 67 1015.7
20260509130044 83 66 0.0 10.0 0.00 0.00 0.00 68 1015.7
20260509124543 82 111 0.0 0.0 0.00 0.00 0.00 73 1015.7
20260509123036 82 75 0.0 0.0 0.00 0.00 0.00 72 1015.5
20260509121548 82 74 0.0 0.0 0.00 0.00 0.00 71 1015.5
20260509120036 82 117 0.0 0.0 0.00 0.00 0.00 71 1015.4
20260509114533 81 149 0.0 0.0 0.00 0.00 0.00 73 1015.2
20260509113027 80 215 0.0 0.0 0.00 0.00 0.00 78 1015.2
20260509111527 80 230 0.0 0.0 0.00 0.00 0.00 77 1015.2
20260509110022 78 230 0.0 0.0 0.00 0.00 0.00 81 1015.0
20260509104522 75 230 0.0 0.0 0.00 0.00 0.00 81 1015.0
20260509103021 73 230 0.0 0.0 0.00 0.00 0.00 76 1014.9
20260509101523 72 230 0.0 0.0 0.00 0.00 0.00 75 1014.7
20260509100024 72 233 0.0 0.0 0.00 0.00 0.00 75 1014.5
20260509094520 72 234 0.0 0.0 0.00 0.00 0.00 75 1014.4
20260509093019 73 234 0.0 0.0 0.00 0.00 0.00 76 1014.2
20260509091520 73 233 0.0 0.0 0.00 0.00 0.00 76 1014.1
20260509090019 73 233 0.0 0.0 0.00 0.00 0.00 76 1014.0
20260509084518 73 233 0.0 0.0 0.00 0.00 0.00 74 1013.9
20260509083016 72 234 0.0 0.0 0.00 0.00 0.00 75 1013.8
20260509081516 73 201 0.0 0.0 0.00 0.00 0.00 77 1013.7
20260509080010 73 136 0.0 0.0 0.00 0.00 0.00 77 1013.8
20260509074509 74 229 0.0 0.0 0.00 0.00 0.00 79 1013.8
20260509073006 74 161 0.0 0.0 0.00 0.00 0.00 80 1013.9
20260509071504 74 324 0.0 0.0 0.00 0.00 0.00 79 1013.9
20260509070001 74 323 0.0 0.0 0.00 0.00 0.00 79 1013.8
20260509064602 75 314 0.0 0.0 0.00 0.00 0.00 81 1013.8
20260509063103 75 315 0.0 0.0 0.00 0.00 0.00 81 1013.8
20260509061555 75 305 0.0 0.0 0.00 0.00 0.00 81 1013.9
20260509060059 76 207 0.0 0.0 0.00 0.00 0.00 81 1014.0
20260509054555 76 205 0.0 0.0 0.00 0.00 0.00 81 1014.1